FW1140 Weather Reports


Display with metric or nautical units.
time (UTC)temp
F
wind
direction
speed
MPH
gust
MPH
rain 1hr
in
rain 24hr
in
rain mn
in
humidity
%
barometer
mb
20260901161553 73 294 0.0 1.0 0.00 0.00 0.00 56 1011.3
20260901160019 73 294 1.0 4.0 0.00 0.00 0.00 56 1011.1
20260901154516 72 311 0.0 3.0 0.00 0.00 0.00 60 1011.3
20260901153039 72 338 2.0 5.0 0.00 0.00 0.00 60 1011.2
20260901151533 71 293 2.0 6.0 0.00 0.00 0.00 61 1011.2
20260901150012 71 1 2.0 5.0 0.00 0.00 0.00 61 1011.1
20260901144534 70 341 1.0 4.0 0.00 0.00 0.00 63 1011.5
20260901143022 70 358 0.0 3.0 0.00 0.00 0.00 65 1011.5
20260901141609 69 1 0.0 3.0 0.00 0.00 0.00 67 1011.5
20260901140014 69 1 0.0 2.0 0.00 0.00 0.00 67 1011.5
20260901134522 69 1 0.0 2.0 0.00 0.00 0.00 65 1011.5
20260901133042 70 296 0.0 3.0 0.00 0.00 0.00 66 1011.4
20260901131553 69 323 0.0 2.0 0.00 0.00 0.00 64 1011.2
20260901130011 68 290 0.0 2.0 0.00 0.00 0.00 66 1011.3
20260901124553 64 212 0.0 3.0 0.00 0.00 0.00 73 1011.1
20260901123051 62 302 0.0 1.0 0.00 0.00 0.00 76 1010.7
20260901121517 62 261 0.0 2.0 0.00 0.00 0.00 72 1010.5
20260901120005 61 219 1.0 5.0 0.00 0.00 0.00 76 1010.5
20260901114557 61 211 2.0 5.0 0.00 0.00 0.00 75 1010.3
20260901113046 63 245 1.0 3.0 0.00 0.00 0.00 72 1010.1
20260901111616 63 253 2.0 6.0 0.00 0.00 0.00 74 1010.1
20260901110046 64 255 2.0 6.0 0.00 0.00 0.00 72 1010.0
20260901104603 64 261 2.0 8.0 0.00 0.00 0.00 74 1010.0
20260901103008 64 252 3.0 6.0 0.00 0.00 0.00 74 1010.1
20260901101540 0 0.0 0.0 0.00 0.00 0.00 1010.0
20260901100004 0 0.0 0.0 0.00 0.00 0.00 1009.6
20260901094537 0 0.0 0.0 0.00 0.00 0.00 1009.6
20260901093038 0 0.0 0.0 0.00 0.00 0.00 1009.7
20260901091608 60 231 3.0 5.0 0.00 0.00 0.00 87 1009.8
20260901090030 61 240 3.0 5.0 0.00 0.00 0.00 87 1009.7
20260901084504 61 206 2.0 5.0 0.00 0.00 0.00 88 1009.4
20260901083102 60 233 1.0 3.0 0.00 0.00 0.00 88 1009.3
20260901081613 59 210 2.0 5.0 0.00 0.00 0.00 90 1009.4
20260901080100 59 215 2.0 3.0 0.00 0.00 0.00 89 1009.4
20260901074603 60 195 1.0 3.0 0.00 0.00 0.00 88 1009.3
20260901073018 61 172 1.0 5.0 0.00 0.00 0.00 88 1009.4
20260901071514 61 199 0.0 3.0 0.00 0.00 0.00 88 1009.3
20260901070026 61 212 1.0 4.0 0.00 0.00 0.00 87 1009.3
20260901064523 62 233 0.0 7.0 0.00 0.00 0.00 86 1009.4
20260901063026 62 204 1.0 4.0 0.00 0.00 0.00 86 1009.4
20260901061611 62 225 0.0 3.0 0.00 0.00 0.00 85 1009.6
20260901060005 62 243 1.0 3.0 0.00 0.00 0.00 84 1009.8
20260901054549 63 220 1.0 4.0 0.00 0.00 0.00 83 1009.7
20260901053121 63 236 2.0 5.0 0.00 0.00 0.00 83 1009.8
20260901051550 63 275 2.0 5.0 0.00 0.00 0.00 83 1009.9
20260901050006 63 212 1.0 3.0 0.00 0.00 0.00 83 1009.7
20260901044525 63 217 0.0 3.0 0.00 0.00 0.00 83 1009.8
20260901043022 65 39 0.0 5.0 0.00 0.00 0.00 79 1009.8
20260901041525 65 250 1.0 3.0 0.00 0.00 0.00 79 1009.5
20260901040028 66 250 1.0 4.0 0.00 0.00 0.00 76 1009.2
20260901034557 66 236 1.0 4.0 0.00 0.00 0.00 77 1009.0
20260901033055 68 240 3.0 7.0 0.00 0.00 0.00 74 1008.8
20260901031527 68 276 2.0 6.0 0.00 0.00 0.00 76 1008.8
20260901030013 66 233 1.0 4.0 0.00 0.00 0.00 81 1008.9
20260901024502 65 248 1.0 3.0 0.00 0.00 0.00 83 1008.9
20260901023029 65 238 0.0 3.0 0.00 0.00 0.00 82 1008.8
20260901021503 64 231 1.0 3.0 0.00 0.00 0.00 82 1008.6
20260901020006 65 236 0.0 2.0 0.00 0.00 0.00 82 1008.4
20260901014524 66 236 0.0 3.0 0.00 0.00 0.00 81 1008.2
20260901013025 67 259 1.0 3.0 0.00 0.00 0.00 79 1007.9
20260901011558 67 231 0.0 4.0 0.00 0.00 0.00 78 1007.9
20260901010013 69 233 1.0 3.0 0.00 0.00 0.00 74 1007.9
20260901004538 71 231 0.0 3.0 0.00 0.00 0.00 70 1007.8
20260901003044 72 201 0.0 3.0 0.00 0.00 0.00 67 1007.8
20260901001548 74 216 1.0 4.0 0.00 0.00 0.00 61 1007.8
20260901000037 77 186 0.0 3.0 0.00 0.00 0.00 56 1007.8
20260831234547 78 165 1.0 3.0 0.00 0.00 0.00 54 1007.7
20260831233105 0 0.0 0.0 0.00 0.00 0.00 1008.1
20260831231533 0 0.0 0.0 0.00 0.00 0.00 1008.1
20260831230104 0 0.0 0.0 0.00 0.00 0.00 1008.1
20260831224558 0 0.0 0.0 0.00 0.00 0.00 1008.0
20260831223025 0 0.0 0.0 0.00 0.00 0.00 1008.0
20260831221519 85 216 1.0 7.0 0.00 0.00 0.00 42 1008.0
20260831220052 86 198 2.0 6.0 0.00 0.00 0.00 38 1007.9
20260831214509 85 236 2.0 6.0 0.00 0.00 0.00 38 1008.0
20260831213105 85 251 2.0 5.0 0.00 0.00 0.00 35 1007.9
20260831211525 87 269 2.0 6.0 0.00 0.00 0.00 36 1007.9
20260831210017 89 290 2.0 6.0 0.00 0.00 0.00 38 1008.0
20260831204555 89 273 2.0 7.0 0.00 0.00 0.00 38 1008.0
20260831203034 87 276 3.0 7.0 0.00 0.00 0.00 30 1008.1
20260831201517 87 203 3.0 8.0 0.00 0.00 0.00 38 1008.2
20260831200038 89 252 3.0 9.0 0.00 0.00 0.00 39 1008.2
20260831194523 88 259 3.0 10.0 0.00 0.00 0.00 37 1008.2
20260831193011 89 248 3.0 6.0 0.00 0.00 0.00 41 1008.2
20260831191535 88 257 1.0 6.0 0.00 0.00 0.00 44 1008.4
20260831190012 88 308 2.0 6.0 0.00 0.00 0.00 46 1008.4
20260831184504 87 350 2.0 6.0 0.00 0.00 0.00 47 1008.4
20260831183010 85 37 1.0 5.0 0.00 0.00 0.00 47 1008.3
20260831181509 86 57 2.0 5.0 0.00 0.00 0.00 47 1008.3
20260831180037 84 298 2.0 6.0 0.00 0.00 0.00 50 1008.4
20260831174550 84 330 1.0 5.0 0.00 0.00 0.00 48 1008.4
20260831173049 83 360 1.0 5.0 0.00 0.00 0.00 45 1008.6
20260831171526 82 311 1.0 5.0 0.00 0.00 0.00 49 1008.7
20260831170044 81 335 1.0 6.0 0.00 0.00 0.00 51 1008.8
20260831164505 79 290 3.0 6.0 0.00 0.00 0.00 49 1008.8
20260831163033 78 326 3.0 7.0 0.00 0.00 0.00 56 1008.7